Dalhart, TX

1:18 PM CDT on August 23, 2017 (GMT -0500)
Dalhart Municipal

Weather History for KDHT - December, 2011

Change the Weather History Date:

Wednesday, December 28, 2011

  Actual Average Record
Temperature  
Mean Temperature 36 °F 34 °F  
Max Temperature 47 °F 48 °F 72 °F (1999)
Min Temperature 25 °F 19 °F -4 °F (1966)
Degree Days  
Heating Degree Days 29 31  
Month to date heating degree days 962 850  
Since 1 July heating degree days 1814 1845  
Cooling Degree Days 0 0  
Month to date cooling degree days 0 0  
Year to date cooling degree days 1788 1138  
Moisture  
Dew Point 24 °F    
Average Humidity 66    
Maximum Humidity 88    
Minimum Humidity 44    
Precipitation  
Precipitation 0.00 in 0.02 in 0.97 in (1987)
Month to date precipitation 0.93 0.49  
Year to date precipitation 6.04 17.54  
Snow  
Snow 0.00 in 0.20 in 5.00 in (1987)
Month to date snowfall 8.3 3.9  
Since 1 July snowfall 8.3 5.8  
Snow Depth 2.00 in    
Sea Level Pressure  
Sea Level Pressure 30.09 in    
Wind  
Wind Speed 10 mph (WNW)    
Max Wind Speed 22 mph    
Max Gust Speed 26 mph    
Visibility 10 miles    
Events      
T = Trace of Precipitation, MM = Missing Value Source: NWS Daily Summary

Daily Weather History Graph

Daily Weather History Graph

Search for Another Location

Airport or City:

Trip Planner

Search our weather history database for the weather conditions in past years. The results will help you decide how hot, cold, wet, or windy it might be!

Date:

Astronomy

Dec. 28, 2011 Rise Set
Actual Time 7:59 AM CST 5:43 PM CST
Civil Twilight 7:31 AM CST 6:12 PM CST
Nautical Twilight 6:59 AM CST 6:44 PM CST
Astronomical Twilight 6:27 AM CST 7:15 PM CST
Moon 10:34 AM CST (12/28) 10:13 PM CST (12/28)
Length of Visible Light 10h 40m
Length of Day
9h 43m
Waxing Crescent, 18% of the Moon is Illuminated
Dec 28
Waxing Crescent
Jan 1
First Quarter
Jan 9
Full
Jan 16
Last Quarter
Jan 23
New

Hourly Weather History & Observations

Time (CST) Temp. Windchill Dew Point Humidity Pressure Visibility Wind Dir Wind Speed Gust Speed Precip Events Conditions
12:53 AM 27.0 °F 18.0 °F 19.0 °F 72% 30.01 in 10.0 mi NW 9.2 mph - N/A   Clear
1:53 AM 32.0 °F 23.0 °F 19.9 °F 61% 30.01 in 10.0 mi NNW 11.5 mph - N/A   Clear
2:53 AM 37.0 °F 26.7 °F 18.0 °F 46% 30.02 in 10.0 mi North 19.6 mph - N/A   Clear
3:53 AM 35.1 °F 24.8 °F 19.0 °F 52% 30.06 in 10.0 mi North 17.3 mph - N/A   Clear
4:53 AM 30.0 °F 22.4 °F 19.0 °F 64% 30.08 in 10.0 mi NNW 8.1 mph - N/A   Clear
5:53 AM 30.9 °F 21.2 °F 18.0 °F 59% 30.09 in 10.0 mi NNW 12.7 mph - N/A   Clear
6:53 AM 30.0 °F 19.5 °F 17.1 °F 59% 30.14 in 10.0 mi NNW 13.8 mph - N/A   Clear
7:53 AM 30.0 °F 20.0 °F 17.1 °F 59% 30.15 in 10.0 mi NNW 12.7 mph - N/A   Clear
8:53 AM 30.0 °F 20.5 °F 18.0 °F 61% 30.19 in 10.0 mi NW 11.5 mph - N/A   Clear
9:53 AM 36.0 °F 28.0 °F 21.0 °F 55% 30.19 in 10.0 mi NNW 11.5 mph - N/A   Clear
10:53 AM 39.0 °F 33.4 °F 24.1 °F 55% 30.19 in 10.0 mi WNW 8.1 mph - N/A   Clear
11:53 AM 42.1 °F 36.6 °F 27.0 °F 55% 30.19 in 10.0 mi West 9.2 mph - N/A   Clear
12:53 PM 44.1 °F 39.5 °F 27.0 °F 51% 30.13 in 10.0 mi West 8.1 mph - N/A   Clear
1:53 PM 45.0 °F 41.8 °F 30.0 °F 56% 30.07 in 10.0 mi SW 5.8 mph - N/A   Clear
2:53 PM 46.0 °F 43.1 °F 28.9 °F 51% 30.05 in 10.0 mi SW 5.8 mph - N/A   Clear
3:53 PM 45.0 °F 41.8 °F 30.0 °F 56% 30.05 in 10.0 mi SW 5.8 mph - N/A   Clear
4:53 PM 42.1 °F 37.7 °F 30.9 °F 65% 30.06 in 10.0 mi SW 6.9 mph - N/A   Clear
5:53 PM 37.0 °F 31.0 °F 28.9 °F 73% 30.08 in 10.0 mi SW 8.1 mph - N/A   Clear
6:53 PM 36.0 °F 29.6 °F 28.0 °F 73% 30.09 in 10.0 mi WSW 8.1 mph - N/A   Clear
7:53 PM 34.0 °F 28.8 °F 28.0 °F 79% 30.11 in 10.0 mi West 5.8 mph - N/A   Clear
8:53 PM 34.0 °F 27.2 °F 27.0 °F 75% 30.10 in 10.0 mi West 8.1 mph - N/A   Clear
9:53 PM 34.0 °F 28.0 °F 27.0 °F 75% 30.07 in 10.0 mi WSW 6.9 mph - N/A   Clear
10:53 PM 33.1 °F 25.5 °F 26.1 °F 75% 30.06 in 10.0 mi WSW 9.2 mph - N/A   Clear
11:53 PM 32.0 °F 25.6 °F 26.1 °F 79% 30.04 in 10.0 mi West 6.9 mph - N/A   Clear